Starlink 31647

operational
NORAD ID: 59389 Int'l Des: 2024-062 Owner: SPXS Country: US Constellation: starlink
LEOCIRCULAR

About Starlink 31647

Description loading...

Live Position

Loading 3D Globe...

Upcoming Passes

Altitude History

Altitude vs Time

uPlot chart will show altitude changes over time

Two-Line Element Set

1 59389U 24062R 26035.41974293 -.00000268 00000-0 30832-5 0 9991
2 59389 53.1608 50.5154 0001122 94.7134 265.3994 15.30189253104575
Epoch: Feb 4, 2026 • Age: 11 hours

Current Status

Altitude 493.8 km
Velocity 7.62 km/s
Sub-Earth Point -51.43°S, 146.39°W
Launch Date Apr 2, 2024
Age 1.8 years
Type internet

Technical Details

Classification Payload
Mass 730.00 kg
Dry Mass 700.00 kg
Total Mass 730.00 kg
Length 0.30 m
Diameter 4.10 m
Span 29.00 m
Shape Box + pan
Manufacturer SPXS
Bus Type Starlink V2M
Phase Status In Orbit
Owner/State SPXS/US

Large Constellations

Loading constellations...